Flag for Germany Weather past 2 weeks in Höxter, North Rhine-Westphalia, Germany

Now
50 °F

Clear.


Feels Like: 49 °F
Forecast: 32 / 63 °F
Wind: 3 mph from Northeast

Location: Bad Lippspringe

Current Time: Apr 19, 2015 at 10:19:02 PM

Latest Report: Apr 19, 2015 at 9:00 PM


Visibility: 15 mi

Pressure: 30.22 "Hg

Humidity: 61%

Dew point: 37 °F

Location of HöxterLocation

Historic Weather in Höxter — Graph

°F

Höxter temperature yesterday

Maximum temperature yesterday: 54 °F (at 5:00 PM)
Minimum temperature yesterday: 31 °F (at 6:00 AM)
Average temperature yesterday: 44 °F

Past Weeks' High & Low Weather Summary

 TemperatureHumidityPressure
High72 °F (Apr 15, 5:00 PM)98% (Apr 5, 5:00 AM)30.64 "Hg (Apr 5, 5:00 AM)
Low28 °F (Apr 5, 7:00 AM)33% (Apr 15, 6:00 PM)29.92 "Hg (Apr 15, 8:00 PM)
Average48 °F69%30.26 "Hg
* Reported Apr 4 9:00 PM — Apr 19 9:00 PM, Höxter, Weather by CustomWeather, © 2015

Note: Actual official high and low records may vary slightly from our data, if they occured in-between our weather recording intervals... More about our weather records

Advertising

Höxter weather history for previous 24 hours

 ConditionsComfort  
Time TempWeatherWind HumidityBarometerVisibility
9:00 PM
Sun, Apr 19
50 °FClear.3 mph61%30.22 "Hg15 mi
8:00 PM56 °FSunny.5 mph49%30.19 "Hg16 mi
7:00 PM58 °FSunny.5 mph41%30.19 "Hg17 mi
6:00 PM60 °FSunny.3 mph38%30.18 "Hg22 mi
5:00 PM60 °FSunny.3 mph37%30.17 "Hg19 mi
4:00 PM60 °FSunny.1 mph33%30.18 "Hg19 mi
3:00 PM59 °FPassing clouds.2 mph39%30.18 "Hg18 mi
2:00 PM58 °FSunny.2 mph41%30.18 "Hg14 mi
1:00 PM55 °FPassing clouds.3 mph44%30.19 "Hg17 mi
12:00 PM54 °FScattered clouds.2 mph45%30.20 "Hg14 mi
11:00 AM49 °FOvercast.1 mph59%30.21 "Hg15 mi
10:00 AM45 °FPartly sunny.1 mph65%30.21 "Hg14 mi
9:00 AM40 °FScattered clouds.1 mph82%30.22 "Hg11 mi
8:00 AM34 °FOvercast.No wind91%30.22 "Hg12 mi
7:00 AM31 °FOvercast.1 mph94%30.22 "Hg11 mi
6:00 AM31 °FClear.1 mph95%30.22 "Hg9 mi
5:00 AM31 °FPassing clouds.1 mph95%30.24 "Hg11 mi
4:00 AM32 °FClear.1 mph91%30.24 "Hg14 mi
3:00 AM33 °FClear.1 mph89%30.26 "Hg14 mi
2:00 AM34 °FClear.1 mph88%30.27 "Hg14 mi
1:00 AM33 °FClear.1 mph91%30.28 "Hg12 mi
12:00 AM38 °FClear.2 mph77%30.28 "Hg19 mi
11:00 PM
Sat, Apr 18
40 °FClear.2 mph75%30.29 "Hg17 mi
10:00 PM40 °FClear.1 mph79%30.29 "Hg19 mi
Weather by CustomWeather, © 2015

See weather overviewHow to use our weather pages